Weather History for EINN - May, 2013

Change the Weather History Date:

Tuesday, May 7, 2013

  Actual Average Record
Temperature  
Mean Temperature 56 °F -  
Max Temperature 61 °F 61 °F 73 °F (2000)
Min Temperature 50 °F 46 °F 35 °F (1997)
Degree Days  
Heating Degree Days 10    
Growing Degree Days 6 (Base 50)    
Moisture  
Dew Point 50 °F    
Average Humidity 83    
Maximum Humidity 100    
Minimum Humidity 53    
Precipitation  
Precipitation 0.28 in 0.08 in - ()
Sea Level Pressure  
Sea Level Pressure 29.83 in    
Wind  
Wind Speed 11 mph ()    
Max Wind Speed 24 mph    
Max Gust Speed 36 mph    
Visibility 6.0 miles    
Events Rain    
Averages and records for this station are not official NWS values.
T = Trace of Precipitation, MM = Missing Value Source: Averaged Metar Reports

Daily Weather History Graph

Daily Weather History Graph

Search for Another Location

Airport or City:

Trip Planner

Search our weather history database for the weather conditions in past years. The results will help you decide how hot, cold, wet, or windy it might be!

Date:

Astronomy

May. 07, 2013 Rise Set
Actual Time 5:52 AM IST 9:13 PM IST
Civil Twilight 5:11 AM IST 9:54 PM IST
Nautical Twilight 4:15 AM IST 10:50 PM IST
Astronomical Twilight 2:58 AM IST 12:10 AM IST
Moon 4:39 AM IST (5/7) 6:44 PM IST (5/7)
Length of Visible Light 16h 43m
Length of Day
15h 21m
Waning Crescent, 6% of the Moon is Illuminated
May 7
Waning Crescent
May 10
New
May 18
First Quarter
May 25
Full
May 31
Last Quarter

Hourly Weather History & Observations

Time (IST) Temp. Dew Point Humidity Pressure Visibility Wind Dir Wind Speed Gust Speed Precip Events Conditions
12:00 AM 51.8 °F 48.2 °F 88% 29.98 in 6.2 mi ESE 9.2 mph - N/A   Scattered Clouds
12:30 AM 51.8 °F 48.2 °F 88% 29.98 in 6.2 mi SE 9.2 mph - N/A   Mostly Cloudy
1:00 AM 52 °F 48 °F 82% 29.99 in 12 mi SE 11.2 mph - -   Mostly Cloudy
1:00 AM 51.8 °F 48.2 °F 88% 29.98 in 6.2 mi SE 10.4 mph - N/A   Mostly Cloudy
1:30 AM 51.8 °F 48.2 °F 88% 29.98 in 6.2 mi ESE 10.4 mph - N/A   Scattered Clouds
2:00 AM 51.8 °F 48.2 °F 88% 29.98 in 6.2 mi ESE 9.2 mph - N/A   Partly Cloudy
2:30 AM 51.8 °F 48.2 °F 88% 29.95 in 6.2 mi ESE 8.1 mph - N/A   Scattered Clouds
3:00 AM 51.8 °F 48.2 °F 88% 29.95 in 6.2 mi ESE 10.4 mph - N/A   Scattered Clouds
3:30 AM 51.8 °F 48.2 °F 88% 29.95 in 5.6 mi ESE 9.2 mph - N/A   Mostly Cloudy
4:00 AM 51.8 °F 48.2 °F 88% 29.95 in 5.6 mi East 8.1 mph - N/A   Mostly Cloudy
4:30 AM 51.8 °F 50.0 °F 94% 29.86 in 6.2 mi ESE 8.1 mph - N/A   Mostly Cloudy
5:00 AM 51.8 °F 50.0 °F 94% 29.95 in 5.6 mi ESE 8.1 mph - N/A   Overcast
5:30 AM 51.8 °F 50.0 °F 94% 29.92 in 5.0 mi ESE 8.1 mph - N/A   Mostly Cloudy
6:00 AM 51.8 °F 50.0 °F 94% 29.92 in 3.7 mi East 8.1 mph - N/A   Mostly Cloudy
6:30 AM 51.8 °F 50.0 °F 94% 29.92 in 3.7 mi East 9.2 mph - N/A   Mostly Cloudy
7:00 AM 52 °F 49 °F 86% 29.93 in 4 mi East 11.2 mph - -   Mist
7:00 AM 51.8 °F 50.0 °F 94% 29.92 in 3.7 mi East 11.5 mph - N/A   Mostly Cloudy
7:30 AM 51.8 °F 50.0 °F 94% 29.92 in 4.3 mi East 12.7 mph - N/A   Mostly Cloudy
8:00 AM 53.6 °F 50.0 °F 88% 29.92 in 5.0 mi East 11.5 mph - N/A   Mostly Cloudy
8:30 AM 53.6 °F 48.2 °F 82% 29.92 in 5.0 mi ESE 10.4 mph - N/A   Mostly Cloudy
9:00 AM 53.6 °F 46.4 °F 77% 29.92 in 5.0 mi East 8.1 mph - N/A   Mostly Cloudy
9:30 AM 53.6 °F 48.2 °F 82% 29.89 in 6.2 mi East 8.1 mph - N/A   Mostly Cloudy
10:00 AM 55.4 °F 48.2 °F 77% 29.89 in 6.2 mi East 9.2 mph - N/A   Mostly Cloudy
10:30 AM 57.2 °F 48.2 °F 72% 29.89 in 6.2 mi East 12.7 mph - N/A   Mostly Cloudy
11:00 AM 57.2 °F 48.2 °F 72% 29.86 in 6.2 mi ESE 12.7 mph - N/A   Mostly Cloudy
11:30 AM 59.0 °F 48.2 °F 67% 29.86 in 6.2 mi SE 16.1 mph - N/A   Mostly Cloudy
12:00 PM 59.0 °F 48.2 °F 67% 29.86 in 6.2 mi SE 15.0 mph - N/A Rain Light Rain Showers
12:30 PM 59.0 °F 48.2 °F 67% 29.83 in 6.2 mi SE 17.3 mph - N/A   Mostly Cloudy
1:00 PM 60 °F 47 °F 53% 29.84 in 28 mi SE 17.9 mph - - Rain Light Rain Showers
1:00 PM 59.0 °F 48.2 °F 67% 29.83 in 6.2 mi SE 18.4 mph - N/A Rain Light Rain Showers
1:30 PM 60.8 °F 48.2 °F 63% 29.83 in 6.2 mi ESE 17.3 mph - N/A   Mostly Cloudy
2:00 PM 60.8 °F 48.2 °F 63% 29.80 in 6.2 mi ESE 24.2 mph 35.7 mph N/A   Mostly Cloudy
2:30 PM 60.8 °F 50.0 °F 68% 29.80 in 6.2 mi ESE 20.7 mph 32.2 mph N/A   Mostly Cloudy
3:00 PM 59.0 °F 50.0 °F 72% 29.77 in 6.2 mi ESE 20.7 mph - N/A   Mostly Cloudy
3:30 PM 59.0 °F 50.0 °F 72% 29.77 in 6.2 mi ESE 19.6 mph 31.1 mph N/A Rain Light Rain Showers
4:00 PM 55.4 °F 51.8 °F 88% 29.77 in 6.2 mi SE 19.6 mph - N/A Rain Light Rain
4:30 PM 57.2 °F 51.8 °F 82% 29.74 in 6.2 mi ESE 16.1 mph - N/A Rain Light Rain
5:00 PM 57.2 °F 51.8 °F 82% 29.74 in 6.2 mi ESE 18.4 mph - N/A   Overcast
5:30 PM 57.2 °F 51.8 °F 82% 29.71 in 6.2 mi ESE 19.6 mph - N/A   Mostly Cloudy
6:00 PM 57.2 °F 51.8 °F 82% 29.71 in 6.2 mi ESE 20.7 mph 33.4 mph N/A   Mostly Cloudy
6:30 PM 55.4 °F 51.8 °F 88% 29.71 in 6.2 mi ESE 19.6 mph - N/A   Mostly Cloudy
7:00 PM 55 °F 51 °F 82% 29.71 in 12 mi ESE 15.7 mph - - Rain Light Drizzle
7:00 PM 55.4 °F 51.8 °F 88% 29.71 in 6.2 mi ESE 16.1 mph - N/A   Light Drizzle
7:30 PM 55.4 °F 51.8 °F 88% 29.68 in 6.2 mi ESE 15.0 mph - N/A   Light Drizzle
8:00 PM 53.6 °F 51.8 °F 94% 29.68 in 5.0 mi ESE 11.5 mph - N/A   Light Drizzle
8:30 PM 53.6 °F 51.8 °F 94% 29.65 in 5.6 mi ESE 15.0 mph - N/A   Mostly Cloudy
9:00 PM 53.6 °F 51.8 °F 94% 29.65 in 6.2 mi ESE 15.0 mph - N/A   Mostly Cloudy
9:30 PM 55.4 °F 51.8 °F 88% 29.65 in 6.2 mi ESE 11.5 mph - N/A   Mostly Cloudy
10:00 PM 53.6 °F 51.8 °F 94% 29.62 in 6.2 mi East 9.2 mph - N/A Rain Light Rain
10:30 PM 53.6 °F 51.8 °F 94% 29.62 in 6.2 mi East 9.2 mph - N/A Rain Light Rain
11:00 PM 53.6 °F 51.8 °F 94% 29.59 in 6.2 mi East 10.4 mph - N/A Rain Light Rain
11:30 PM 51.8 °F 51.8 °F 100% 29.56 in 3.7 mi East 9.2 mph - N/A Rain Light Rain